AKST,Max TemperatureF,Mean TemperatureF,Min TemperatureF,Max Dew PointF,MeanDew PointF,Min DewpointF,Max Humidity, Mean Humidity, Min Humidity, Max Sea Level PressureIn, Mean Sea Level PressureIn, Min Sea Level PressureIn, Max VisibilityMiles, Mean VisibilityMiles, Min VisibilityMiles, Max Wind SpeedMPH, Mean Wind SpeedMPH, Max Gust SpeedMPH,PrecipitationIn, CloudCover, Events, WindDirDegrees
2012-11-1,19,10,3,16,8,1,100,90,85,30.45,30.24,29.99,10,4,0,31,15,33,0.02,8,Snow,235
2012-11-2,21,11,1,19,12,-1,100,87,71,30.20,30.11,29.98,10,5,0,25,17,25,0.00,8,Fog-Snow,302
2012-11-3,6,2,-2,3,-1,-7,92,87,82,30.22,30.20,30.18,10,6,0,17,12,,0.01,8,Fog-Snow,250
2012-11-4,1,-7,-15,-2,-11,-20,83,81,78,30.17,30.09,30.04,10,10,9,16,13,,0.00,6,,234
2012-11-5,-2,-8,-15,-8,-13,-19,85,81,78,30.30,30.23,30.11,10,7,3,22,18,,0.00,3,Snow,221
2012-11-6,9,-1,-11,4,-8,-17,80,75,71,30.30,30.24,30.22,10,9,4,25,15,,0.00,3,Snow,222
2012-11-7,19,14,10,17,11,4,93,86,76,30.45,30.32,30.24,10,7,2,25,21,,0.00,8,Snow,238
2012-11-8,15,4,-6,12,-1,-10,92,84,75,30.48,30.37,30.23,10,10,7,13,10,,0.00,4,Snow,229
2012-11-9,17,5,-7,14,7,-12,92,86,79,30.23,30.03,29.91,10,8,2,22,18,,0.00,8,Snow,231
2012-11-10,19,16,12,18,14,10,93,91,84,29.98,29.90,29.85,10,4,0,29,20,,0.00,8,Snow,244
2012-11-11,19,14,10,18,11,6,93,86,79,30.22,30.12,29.99,10,7,2,17,10,,0.00,8,Snow,61
2012-11-12,15,6,-2,13,3,-6,92,87,80,30.22,30.08,29.98,10,4,0,30,13,,0.00,8,Snow,235
2012-11-13,10,6,1,9,3,0,92,87,79,30.17,30.07,29.96,10,2,0,33,23,40,0.00,8,Snow,262
2012-11-14,1,-4,-8,-3,-7,-13,87,81,75,30.25,30.20,30.08,10,5,0,25,14,,0.00,7,Snow,257
2012-11-15,7,1,-4,4,-1,-8,92,86,79,30.31,30.22,30.17,8,2,0,30,24,38,0.00,8,Snow,243
2012-11-16,10,-4,-17,7,-10,-20,96,86,77,30.51,30.46,30.31,10,2,0,16,7,,0.00,6,Fog-Snow,152
2012-11-17,-4,-10,-16,-8,-13,-20,92,83,77,30.43,30.34,30.27,10,3,0,14,6,,0.00,8,Fog-Snow,231
2012-11-18,0,-9,-18,-4,-13,-23,86,81,77,30.51,30.39,30.27,10,9,5,13,8,,0.00,6,Snow,241
2012-11-19,1,-8,-16,-2,-10,-21,92,84,77,30.55,30.54,30.51,10,7,0,8,4,,0.00,6,Fog-Snow,220
2012-11-20,3,0,-2,0,-3,-7,88,83,80,30.50,30.39,30.34,9,8,7,14,6,,0.00,8,Snow,89
2012-11-21,1,-8,-16,-3,-10,-20,87,82,78,30.59,30.47,30.36,9,6,3,10,6,,0.00,7,Snow,319
2012-11-22,1,-8,-18,-3,-13,-24,84,81,75,30.65,30.61,30.54,9,7,3,14,5,,0.00,7,Snow,226
2012-11-23,0,-4,-7,-3,-6,-11,92,85,78,30.53,30.45,30.40,9,6,2,16,7,,0.00,8,Snow,86
2012-11-24,-5,-10,-15,-8,-14,-19,92,82,75,30.40,30.37,30.34,10,7,0,12,7,,0.00,7,Fog-Snow,240
2012-11-25,8,-1,-9,3,-4,-14,92,79,73,30.44,30.39,30.25,10,8,2,17,11,,0.00,8,Snow,233
2012-11-26,8,-2,-13,4,-3,-15,92,85,79,30.48,30.27,30.11,10,6,2,23,11,,0.00,5,Snow,302
2012-11-27,-4,-11,-18,-8,-15,-24,92,84,76,30.59,30.55,30.49,9,5,0,12,7,,0.00,4,Fog-Snow,328
2012-11-28,0,-8,-16,-4,-12,-20,85,81,77,30.54,30.44,30.37,10,4,0,25,17,31,0.00,7,Fog-Snow,244
2012-11-29,1,-3,-7,-2,-5,-11,92,84,82,30.43,30.40,30.35,10,6,2,21,15,,0.01,8,Snow,236
2012-11-30,1,-2,-4,-2,-4,-8,92,85,78,30.35,30.22,30.07,10,3,2,22,18,,0.00,8,Snow,235